Location: Luxembourg
(49.6117°N, 6.1300°E)
Time: 02:51:43
(UTC+01:00)

N. Korean satellite - Pass Details

Date: 02 February 2019
Orbit: 457 x 510 km, 97.2° (Epoch: 18 February)

Event Time Altitude Azimuth Distance (km) Brightness Sun altitude
Rises 06:44:29 0° 15° (NNE) 2,593 10.3 -13.5°
Reaches altitude 10° 06:46:37 10° 19° (NNE) 1,696 9.4 -13.2°
Maximum altitude 06:50:14 61° 101° (E) 557 7.2 -12.6°
Drops below altitude 10° 06:53:45 10° 182° (S) 1,650 9.4 -12.0°
Sets 06:55:48 0° 186° (S) 2,514 10.3 -11.7°
